SCP
0 0 0 0 0 0 0 0 0 0 0 0 0 0 0 0 0 0 0 0 0 0 0 0 0 0 0 0 0 0 0 0 0 0 0 0 0 0 0 0 0 0 0
0 0 0 0 0 0 0 0 0 0 0 0 0 0 0 0 0 0 0 0 0 0 0 0 0 0 0 0 0 0 0 0 0 0 0 0 0 0 0 0 0 0 0
0 0 0 0 0 0 0 0 0 0 0 0 0 0 0 0 0 0 0 0 0 0 0 0 0 0 0 0 0 0 0 0 0 0 0 0 0 0 0 0 0 0 0
0 0 0 0 0 0 0 0 0 0 0 0 0 0 0 0 0 0 0 0 0 0 0 0 0 0 0 0 0 0 0 0 0 0 0 0 0 0 0 0 0 0 0
0 0 0 0 0 0 0 0 0 0 0 0 0 0 0 0 0 0 0 0 0 0 0 0 0 0 0 0 0 0 0 0 0 0 0 0 0 0 0 0 0 0 0
0 0 0 0 0 0 0 0 0 0 0 0 0 0 0 0 0 0 0 0 0 0 0 0 0 0 0 0 0 0 0 0 0 0 0 0 0 0 0 0 0 0 0
0 0 0 0 0 0 0 0 0 0 0 0 0 0 0 0 0 0 0 0 0 0 0 0 0 0 0 0 0 0 0 0 0 0 0 0 0 0 0 0 0 0 0
0 0 0 0 0 0 0 0 0 0 0 0 0 0 0 0 0 0 0 0 0 0 0 0 0 0 0 0 0 0 0 0 0 0 0 0 0 0 0 0 0 0 0
0 0 0 0 0 0 0 0 0 0 0 0 0 0 0 0 0 0 0 0 0 0 0 0 0 0 0 0 0 0 0 0 0 0 0 0 0 0 0 0 0 0 0
0 0 0 0 0 0 0 0 0 0 0 0 0 0 0 0 0 0 0 0 0 0 0 0 0 0 0 0 0 0 0 0 0 0 0 0 0 0 0 0 0 0 0
0 0 0 0 0 0 0 0 0 0 0 0 0 0 0 0 0 0 0 0 0 0 0 0 0 0 0 0 0 0 0 0 0 0 0 0 0 0 0 0 0 0 0
0 0 0 0 0 0 0 0 0 0 0 0 0 0 0 0 0 0 0 0 0 0 0 0 0 0 0 0 0 0 0 0 0 0 0 0 0 0 0 0 0 0 0
0 0 0 0 0 0 0 0 0 0 0 0 0 0 0 0 0 0 0 0 0 0 0 0 0 0 0 0 0 0 0 0 0 0 0 0 0 0 0 0 0 0 0
0 0 0 0 0 0 0 0 0 0 0 0 0 0 0 0 0 0 0 0 0 0 0 0 0 0 0 0 0 0 0 0 0 0 0 0 0 0 0 0 0 0 0
0 0 0 0 0 0 0 0 0 0 0 0 0 0 0 0 0 0 0 0 0 0 0 0 0 0 0 0 0 0 0 0 0 0 0 0 0 0 0 0 0 0 0
0 0 0 0 0 0 0 0 0 0 0 0 0 0 0 0 0 0 0 0 0 0 0 0 0 0 0 0 0 0 0 0 0 0 0 0 0 0 0 0 0 0 0
0 0 0 0 0 0 0 0 0 0 0 0 0 0 0 0 0 0 0 0 0 0 0 0 0 0 0 0 0 0 0 0 0 0 0 0 0 0 0 0 0 0 0
0 0 0 0 0 0 0 0 0 0 0 0 0 0 0 0 0 0 0 0 0 0 0 0 0 0 0 0 0 0 0 0 0 0 0 0 0 0 0 0 0 0 0
0 0 0 0 0 0 0 0 0 0 0 0 0 0 0 0 0 0 0 0 0 0 0 0 0 0 0 0 0 0 0 0 0 0 0 0 0 0 0 0 0 0 0
0 0 0 0 0 0 0 0 0 0 0 0 0 0 0 0 0 0 0 0 0 0 0 0 0 0 0 0 0 0 0 0 0 0 0 0 0 0 0 0 0 0 0
0 0 0 0 0 0 0 0 0 0 0 0 0 0 0 0 0 0 0 0 0 0 0 0 0 0 0 0 0 0 0 0 0 0 0 0 0 0 0 0 0 0 0
0 0 0 0 0 0 0 0 0 0 0 0 0 0 0 0 0 0 0 0 0 0 0 0 0 0 0 0 0 0 0 0 0 0 0 0 0 0 0 0 0 0 0
0 0 0 0 0 0 0 0 0 0 0 0 0 0 0 0 0 0 0 0 0 0 0 0 0 0 0 0 0 0 0 0 0 0 0 0 0 0 0 0 0 0 0
0 0 0 0 0 0 0 0 0 0 0 0 0 0 0 0 0 0 0 0 0 0 0 0 0 0 0 0 0 0 0 0 0 0 0 0 0 0 0 0 0 0 0
0 0 0 0 0 0 0 0 0 0 0 0 0 0 0 0 0 0 0 0 0 0 0 0 0 0 0 0 0 0 0 0 0 0 0 0 0 0 0 0 0 0 0
0 0 0 0 0 0 0 0 0 0 0 0 0 0 0 0 0 0 0 0 0 0 0 0 0 0 0 0 0 0 0 0 0 0 0 0 0 0 0 0 0 0 0
Wind_Speed
3 3 2 2 2 1 2 1 1 1 1 1 2 4 5 5 5 4 3 10 10 10 10 10 10 10 10 9 9 9 8 8 8 8 7 8 8 8 9 9 8 7 7
4 3 3 2 2 2 2 2 2 1 1 2 2 4 5 5 5 5 4 6 10 10 10 10 10 10 10 9 9 9 9 8 8 8 8 8 8 8 8 8 8 8 7
4 4 3 2 2 2 2 1 1 1 1 1 2 3 4 4 5 5 5 4 5 9 11 11 11 11 11 10 10 10 9 9 8 8 8 8 8 8 8 8 8 8 8
5 4 3 2 2 1 1 1 1 1 0 0 1 1 2 3 5 5 5 5 4 5 8 12 12 11 11 11 11 11 11 10 9 9 9 9 9 9 8 8 8 8 8
5 4 3 2 2 2 1 2 1 1 1 1 1 1 2 3 4 6 6 6 6 5 5 9 12 12 13 13 12 12 12 12 11 11 11 10 10 9 9 9 9 9 8
4 4 2 2 2 2 1 1 1 1 1 1 1 1 2 2 3 4 6 6 6 7 6 6 6 8 13 12 12 13 13 13 12 12 12 12 11 11 10 10 10 10 10
4 4 3 2 3 2 2 2 1 1 0 1 1 2 2 2 3 4 4 4 6 7 6 7 5 5 5 12 13 14 14 14 14 14 13 13 12 11 12 12 11 11 11
4 4 4 3 3 2 2 2 2 1 1 1 2 1 2 4 3 3 3 4 6 5 6 8 7 7 6 4 8 14 15 15 15 15 14 14 13 13 13 13 13 12 12
5 4 5 4 3 3 3 3 3 3 2 1 2 3 2 3 3 3 3 3 4 4 5 5 7 7 7 5 5 10 14 14 15 16 16 15 14 13 13 13 13 13 13
4 5 5 5 4 3 3 3 3 3 3 1 1 1 3 3 2 2 3 2 3 4 5 6 6 7 7 6 7 10 13 14 14 16 16 15 14 13 13 14 15 14 14
4 5 5 4 4 3 4 3 3 3 3 3 2 1 1 1 2 2 3 3 2 3 3 5 4 5 6 6 6 9 12 14 14 14 14 14 14 14 14 14 14 14 14
3 4 5 4 4 4 4 4 4 4 3 3 2 2 2 2 2 2 3 3 3 3 2 2 3 4 4 5 8 11 12 12 13 13 13 13 13 13 13 13 14 14 14
3 5 4 4 4 4 5 4 4 4 4 3 3 2 2 2 2 2 2 2 2 3 2 2 3 3 4 4 5 9 10 11 12 12 12 13 12 12 12 13 13 13 14
4 4 4 5 5 5 4 3 3 4 3 3 4 3 2 2 2 2 2 2 1 2 2 3 1 2 2 2 4 7 6 10 11 12 12 12 12 11 11 11 11 11 11
4 5 5 5 5 4 4 4 3 3 3 3 3 3 2 2 2 2 2 3 3 2 3 3 2 2 1 2 3 4 5 8 11 12 12 12 12 12 11 11 10 10 10
4 4 5 5 5 4 4 4 3 3 3 3 3 3 3 2 1 1 1 2 3 3 3 3 2 2 2 2 3 3 4 7 9 10 11 12 12 12 11 10 10 10 10
4 4 4 4 4 4 4 3 3 3 3 2 2 2 3 2 1 1 1 1 1 2 3 3 2 2 1 2 2 2 3 3 4 8 9 10 10 10 10 10 9 9 9
4 4 4 4 3 3 3 3 3 3 3 2 2 1 2 1 1 1 1 1 1 2 2 3 2 1 2 2 2 2 2 2 2 5 7 8 8 9 9 9 8 8 8
3 3 3 3 2 2 2 2 3 2 2 2 2 2 2 1 1 1 1 1 1 1 1 2 2 2 2 1 1 2 2 2 2 2 3 5 6 6 6 6 6 6 7
3 3 3 3 2 2 1 1 2 2 2 1 1 1 1 1 2 1 1 1 1 1 1 1 1 2 2 2 1 1 2 2 2 2 2 1 2 4 5 5 5 5 5
3 3 3 2 2 2 1 1 2 2 2 1 0 0 1 1 1 0 0 1 0 0 0 0 1 2 2 2 2 1 2 2 2 1 1 1 0 1 2 3 3 3 4
3 3 3 3 3 2 2 3 2 1 1 2 1 0 0 1 2 2 3 2 2 1 0 0 1 1 3 2 2 1 1 1 2 2 0 2 1 1 1 1 1 2 2
4 4 4 4 3 2 3 4 3 2 2 2 1 1 1 2 2 1 2 4 3 3 1 2 1 2 3 3 2 2 1 2 3 2 0 1 1 1 1 1 1 2 2
4 4 4 3 3 2 3 4 4 3 3 2 2 2 2 2 3 2 2 3 3 2 1 0 1 2 3 3 2 2 2 2 2 1 0 1 1 1 2 1 2 1 1
5 4 3 3 3 2 3 4 5 4 3 3 3 3 3 2 3 3 3 3 3 3 3 3 3 3 4 4 2 1 1 1 2 2 1 0 1 1 1 1 2 2 2
5 4 4 3 3 3 4 5 5 3 3 2 2 3 5 5 6 5 3 2 2 2 3 4 4 5 5 5 5 2 0 0 1 2 2 0 1 1 1 2 1 1 2
Wind_Direction
164 167 182 188 197 192 188 199 217 233 226 159 154 148 147 153 156 157 167 173 172 173 173 174 175 174 174 175 175 175 174 174 174 173 174 175 175 172 172 171 169 168 166
161 159 169 175 184 183 182 181 180 179 169 139 149 155 154 159 164 169 174 182 182 182 185 186 185 184 184 185 185 185 186 184 180 181 183 183 181 180 181 182 181 179 175
159 156 161 170 183 174 161 145 145 89 107 126 142 159 158 167 173 179 181 188 192 196 196 196 196 196 196 195 195 195 196 195 189 188 190 190 187 188 191 190 190 187 186
153 147 155 177 182 154 148 148 126 89 76 128 177 187 168 176 183 188 189 194 196 201 205 205 205 205 206 205 204 204 204 203 198 197 198 199 197 196 196 196 196 195 195
153 149 162 176 162 146 162 179 136 149 172 213 216 216 197 192 193 192 196 202 204 206 207 212 211 211 213 212 212 211 210 210 207 207 207 208 207 204 202 202 202 201 201
154 144 157 167 154 142 150 145 142 147 186 210 266 267 248 222 209 202 202 203 207 211 209 210 211 217 217 216 216 217 217 216 213 213 213 214 213 211 209 209 208 208 209
163 153 156 160 157 159 174 166 147 146 256 152 70 338 319 277 237 224 212 202 210 212 206 209 209 208 216 219 220 221 222 221 218 215 215 216 217 216 214 215 215 215 215
176 173 169 174 170 163 169 171 157 148 265 168 144 108 337 330 312 248 221 213 216 209 210 211 209 209 211 209 220 222 224 225 223 219 218 218 219 218 217 218 219 219 219
190 182 180 179 180 172 187 203 183 175 205 259 172 155 165 239 293 302 256 228 215 210 217 215 213 213 212 210 217 224 225 226 226 225 222 220 219 220 221 222 223 223 223
200 194 187 184 189 190 197 211 200 188 173 224 267 213 192 180 186 297 312 285 241 223 219 220 218 215 213 210 216 218 221 223 226 228 227 224 222 222 223 226 229 229 228
209 204 195 192 193 196 201 208 201 197 184 192 207 223 231 216 184 188 274 302 304 261 229 218 217 215 212 210 213 221 220 222 225 227 227 228 229 227 226 228 231 233 233
220 214 204 199 200 202 207 210 207 205 206 203 207 203 196 193 206 193 229 262 275 278 260 229 218 215 211 208 216 216 215 218 221 221 223 226 227 227 227 228 232 234 235
220 219 211 205 208 210 211 205 205 215 210 208 214 218 214 209 196 187 200 246 267 285 292 264 231 217 217 211 223 221 217 216 219 219 221 224 225 226 226 228 231 234 236
213 213 209 212 214 211 211 201 208 220 215 218 226 220 219 228 208 192 186 189 268 300 294 277 289 235 229 220 229 220 225 221 221 219 221 223 225 226 226 226 228 231 234
212 209 207 212 218 213 206 192 206 218 212 215 227 230 231 235 224 212 191 179 179 249 279 279 280 278 251 220 231 221 225 226 220 220 222 224 225 226 226 225 226 228 230
208 200 208 211 214 213 204 195 206 218 208 222 221 228 241 243 244 231 218 208 187 193 243 267 253 274 275 264 237 228 230 233 228 225 224 225 225 225 226 226 225 227 228
202 201 202 201 200 206 201 196 205 204 210 229 232 219 237 234 236 250 244 230 212 188 235 273 267 272 260 277 286 262 249 239 236 229 227 228 228 226 226 227 228 228 229
202 196 185 187 194 195 193 189 202 206 202 212 224 212 246 239 243 259 256 264 252 220 213 262 286 292 269 269 272 271 272 259 245 235 229 230 228 224 222 224 225 226 227
186 172 157 161 173 178 181 191 188 190 189 202 200 200 242 224 255 269 259 266 268 269 221 240 278 278 276 309 318 303 304 297 285 271 236 226 224 217 215 218 219 223 227
169 166 156 163 169 164 163 175 163 160 160 173 180 196 231 212 231 251 274 283 273 285 275 265 287 304 298 308 341 319 319 313 306 321 306 239 220 214 215 216 215 219 222
167 155 148 152 147 132 126 132 144 144 147 144 141 140 117 92 76 58 352 299 294 312 16 12 315 326 323 335 316 291 297 307 313 321 306 298 268 228 234 229 222 216 215
150 139 144 131 113 122 119 124 130 129 127 132 134 82 52 36 27 39 41 52 81 114 117 33 301 293 291 281 285 288 281 307 304 309 329 308 15 280 272 244 232 201 197
140 129 122 118 121 117 114 116 131 125 106 100 110 94 26 27 32 33 38 53 53 55 112 179 224 268 278 276 284 287 265 252 257 269 221 289 309 283 288 299 246 226 223
136 127 125 131 127 109 119 123 115 102 92 82 80 94 87 29 22 33 52 50 47 29 15 70 225 265 278 280 257 247 249 277 291 313 14 273 302 295 307 333 342 341 307
124 121 122 131 131 109 103 118 115 101 89 70 64 71 81 68 34 66 78 63 33 6 15 21 11 360 348 343 346 17 345 5 317 319 349 81 306 310 316 306 328 357 338
123 117 104 93 96 87 75 92 108 106 96 77 57 50 56 59 52 64 85 83 52 344 358 10 7 1 0 3 12 25 217 183 280 309 323 32 321 359 328 304 313 337 334